Wind_Gust
10 9 10 10 11 11 12 13 13 14 15 15 16 16 18 19 19 19 20 22 21 23 23 23 23 23 24 23 22 24 25 23 25 23 29 32 33 34 35 31 28 29
11 11 10 10 11 11 12 13 15 16 17 16 16 16 17 18 19 20 20 21 22 23 23 23 23 24 24 25 23 25 25 25 25 24 24 27 30 32 36 35 32 31
12 11 11 11 12 12 13 14 15 17 17 17 17 18 18 17 20 20 21 21 22 22 22 23 24 24 25 25 25 25 27 25 27 25 25 26 27 29 30 35 35 34
13 12 12 12 12 13 14 15 15 17 17 18 17 17 18 18 20 21 22 21 23 24 23 23 24 24 25 26 26 28 27 28 28 26 27 26 27 28 31 30 35 36
13 13 13 12 12 13 14 15 17 18 18 20 20 20 21 20 21 22 23 23 23 23 23 24 24 26 25 26 26 28 27 29 29 29 30 28 27 28 29 33 36 40
12 13 13 13 13 14 15 16 18 19 20 20 22 22 21 22 23 23 24 24 24 24 23 24 24 25 26 26 28 28 29 29 29 30 32 32 30 29 30 31 34 37
12 12 12 14 14 14 16 17 18 20 21 22 23 24 24 24 24 24 25 25 26 26 26 27 26 26 26 26 27 28 31 29 29 31 33 35 33 32 30 30 33 34
12 12 13 14 14 15 17 18 20 21 21 21 22 24 24 26 27 25 24 25 25 27 27 28 28 29 27 27 28 28 30 31 30 31 32 35 34 34 33 32 29 33
12 12 13 14 15 16 17 20 21 21 21 23 24 25 25 26 27 26 27 27 27 28 28 28 29 30 30 29 29 29 30 30 31 31 32 33 34 36 37 34 32 32
12 13 13 15 16 17 18 19 22 22 23 24 25 25 27 26 27 28 28 28 28 29 29 29 30 30 31 31 31 30 31 31 31 33 33 33 35 35 37 38 34 33
12 13 14 15 16 17 19 22 23 24 24 25 25 26 26 27 28 28 29 29 31 30 30 31 31 31 32 33 32 31 31 32 32 32 33 34 34 35 29 36 37 35
13 13 14 16 17 18 20 21 23 24 25 25 25 26 28 28 29 30 30 30 31 31 31 31 32 33 34 34 34 33 33 32 33 32 33 35 35 34 36 35 34 37
13 14 15 16 17 19 21 23 24 24 26 27 26 26 29 30 30 30 30 31 32 32 32 33 33 34 35 34 34 34 34 33 33 33 33 34 35 37 36 36 36 37
13 14 15 16 18 21 22 23 24 25 26 27 27 29 31 31 32 31 31 31 33 33 34 34 34 34 35 35 36 36 35 35 34 33 34 35 34 36 36 36 36 35
13 14 15 18 20 22 22 23 25 26 27 28 28 29 30 30 30 31 32 33 34 34 35 34 35 36 36 36 36 36 36 36 36 35 35 34 37 38 38 39 37 36
14 15 17 18 21 22 23 25 27 28 28 28 29 30 30 30 30 31 32 34 35 36 35 36 37 37 31 26 25 34 34 36 34 34 34 34 35 38 39 40 40 36
15 15 17 20 21 23 24 27 28 29 29 29 29 29 30 31 32 33 34 34 35 35 36 37 38 37 26 23 25 27 32 33 32 33 32 35 35 37 40 39 37 37
14 16 19 21 22 24 26 27 28 29 29 29 30 30 30 30 31 33 34 35 36 36 37 38 38 27 26 25 25 25 24 36 36 34 32 33 34 36 38 37 36 37
15 17 20 22 22 24 26 27 29 29 29 29 30 30 29 31 32 33 34 35 37 38 39 39 39 28 27 27 26 25 25 28 37 37 37 35 32 34 36 38 35 34
16 19 21 21 22 25 26 28 28 29 29 30 31 31 31 32 32 33 34 36 38 38 39 40 41 30 28 28 27 27 27 26 36 39 38 38 37 35 34 36 37 35
17 19 20 20 23 25 27 28 29 30 30 31 32 31 32 33 33 33 34 35 36 38 39 40 43 28 28 28 27 27 28 27 36 39 39 39 39 36 35 35 35 37
16 18 20 22 24 26 27 29 30 30 31 31 31 32 32 33 33 34 36 36 36 38 39 41 41 29 28 27 28 27 28 30 36 39 39 39 40 37 37 37 36 37
16 19 21 23 24 27 29 30 31 32 30 30 31 32 32 33 34 35 35 36 37 38 40 42 42 34 29 29 29 29 26 33 37 38 38 39 39 37 38 39 37 35
16 19 22 23 24 27 30 30 29 30 31 30 32 32 33 33 34 35 35 35 36 38 39 38 38 33 29 29 30 31 28 36 37 37 36 39 38 37 38 37 37 30
17 20 21 23 25 27 26 27 29 31 32 31 31 31 33 33 33 34 34 34 34 34 31 41 40 36 31 31 32 31 32 35 38 35 35 37 36 35 37 39 37 30
17 19 21 23 26 26 26 26 30 33 32 32 32 32 33 32 32 34 35 34 31 32 34 35 39 39 37 31 31 29 30 35 35 36 35 36 34 35 37 36 38 36
Wind_Speed
3 3 3 3 3 3 3 4 4 4 5 5 6 6 6 6 6 8 10 10 11 12 12 12 12 12 12 12 11 11 12 12 12 11 13 13 11 16 16 18 17 15
4 4 3 3 3 3 4 4 5 5 6 6 7 7 7 7 8 8 10 11 11 12 12 12 12 13 13 12 12 12 11 12 13 10 12 14 12 16 20 22 19 16
5 4 4 5 4 4 5 6 6 6 6 7 7 8 8 7 8 8 9 10 11 11 11 12 12 13 13 13 13 12 13 13 13 13 13 14 14 15 15 16 17 19
6 5 4 5 5 5 5 6 6 6 7 7 7 7 7 7 8 9 10 12 12 12 12 12 12 13 13 14 14 13 14 14 14 13 14 13 13 13 13 14 14 16
6 5 5 5 5 5 5 6 7 7 7 8 8 9 9 9 10 10 11 11 11 12 12 12 12 13 13 13 14 14 14 14 15 15 15 15 14 14 14 14 15 19
5 5 5 5 5 6 6 7 7 8 8 9 10 9 10 11 11 11 12 13 12 12 12 12 13 13 13 13 13 14 14 14 14 16 17 17 15 14 13 15 16 17
5 5 5 6 6 6 7 7 7 8 9 10 11 11 11 11 12 12 13 13 14 14 14 13 14 14 12 13 13 14 15 16 16 16 17 17 17 18 16 16 18 19
5 5 5 6 6 7 8 8 8 9 10 11 12 12 12 13 13 12 13 13 14 14 15 15 15 15 15 13 14 14 16 14 15 17 16 18 18 19 19 15 16 18
5 5 5 6 7 8 9 9 9 10 10 11 12 12 12 13 14 14 14 14 15 15 15 15 16 16 15 16 15 16 16 16 16 18 17 17 18 20 21 18 18 17
5 5 6 7 8 8 9 9 9 10 11 12 13 13 13 13 15 15 15 15 15 16 16 16 16 16 16 16 17 17 16 17 17 18 18 18 18 19 20 20 20 18
5 5 6 7 8 8 9 10 10 10 11 13 13 14 14 14 14 15 16 16 15 16 17 17 17 17 18 18 17 17 17 17 17 17 18 19 19 18 19 20 21 20
5 5 6 7 8 9 10 10 10 11 12 12 13 14 14 15 15 15 15 17 17 17 17 17 18 18 18 19 18 18 18 17 17 18 18 18 20 19 19 19 19 21
5 5 6 7 8 8 9 10 11 12 13 14 14 15 16 16 16 17 16 17 18 18 18 18 18 19 19 19 19 19 19 19 18 18 19 17 18 21 21 19 20 20
5 5 6 7 7 8 10 11 12 13 14 14 15 16 16 17 17 17 17 16 17 18 18 18 19 19 19 19 19 19 18 19 19 18 18 19 19 20 21 20 20 20
5 5 5 7 8 9 11 12 13 13 14 15 15 15 14 16 17 17 17 18 18 19 19 18 18 18 17 18 18 20 20 19 20 19 19 19 19 20 21 22 21 19
5 6 7 7 8 10 12 13 13 14 15 15 16 16 16 16 17 17 18 19 19 19 19 18 18 17 18 19 18 17 17 17 17 18 18 18 18 19 21 23 23 20
5 6 6 7 9 11 12 13 14 14 15 16 16 16 16 17 17 18 18 18 19 19 20 19 18 17 20 18 19 21 18 18 17 18 18 18 18 19 19 20 20 21
5 6 7 8 10 11 12 13 14 15 15 16 16 17 16 16 17 18 19 19 18 20 20 20 20 21 20 19 18 19 18 18 18 17 16 17 18 19 18 19 20 19
5 6 7 9 10 11 12 13 14 15 15 16 16 16 16 17 18 18 19 19 19 21 21 21 21 22 21 20 20 19 19 18 18 19 19 19 18 18 19 19 18 17
6 7 8 9 10 11 12 13 14 15 15 15 15 16 17 18 18 20 19 19 20 21 21 22 23 22 21 21 21 21 20 18 19 21 21 21 21 19 17 18 20 18
6 7 7 9 10 12 12 13 14 15 16 15 15 16 16 17 18 18 18 18 19 20 20 21 20 22 22 22 21 21 22 19 19 20 20 21 21 21 19 18 19 19
7 7 7 10 11 12 13 14 15 15 17 16 16 16 16 17 17 17 19 20 20 20 21 22 21 23 22 21 22 21 22 16 19 20 21 20 21 21 20 18 18 19
7 7 8 10 12 13 14 15 15 16 16 15 16 17 17 17 17 17 17 19 20 21 22 22 23 24 23 23 23 23 19 17 19 18 19 21 21 21 19 19 19 20
6 8 9 10 12 13 14 15 15 14 15 15 16 17 17 17 17 17 18 19 20 22 21 22 21 22 23 23 24 25 21 18 18 18 19 20 20 20 19 18 21 25
7 8 9 11 12 13 13 12 13 14 15 15 16 16 17 17 17 17 18 18 19 20 24 23 20 23 24 24 25 25 20 17 18 17 18 19 18 18 19 18 18 20
7 8 10 11 13 14 14 13 13 15 17 17 16 15 16 16 16 17 19 18 16 17 17 17 19 20 21 25 25 24 23 17 16 17 18 19 18 16 16 18 19 19
Wind_Direction
165 180 204 228 235 248 261 269 271 272 271 270 269 271 272 273 277 278 278 277 276 274 270 269 270 265 256 256 257 255 252 251 254 250 242 235 230 223 219 219 215 216
172 193 216 228 238 232 248 258 270 270 270 267 267 272 272 270 267 269 272 275 273 271 271 270 266 262 257 254 253 252 251 247 246 247 250 234 225 226 227 222 218 215
182 193 211 227 236 244 250 258 261 264 266 272 274 270 268 270 270 269 271 269 271 271 270 267 264 260 258 256 255 253 250 250 247 244 245 249 241 235 230 223 222 216
190 201 217 224 235 242 246 255 260 265 268 268 269 275 275 272 270 271 273 270 267 267 266 267 266 265 263 262 254 249 248 248 248 246 244 243 245 239 229 229 226 223
192 202 215 228 232 238 246 253 260 265 271 276 279 277 273 271 274 273 272 272 268 265 264 263 262 260 256 258 259 254 250 249 246 244 244 241 239 240 240 231 226 228
196 212 222 227 231 237 243 251 258 264 270 273 274 276 274 274 274 274 275 273 270 266 262 259 259 259 259 255 253 253 249 248 247 245 244 242 239 237 238 238 232 226
204 214 228 235 241 242 249 253 259 266 273 279 282 279 278 277 275 274 272 270 269 267 263 260 256 255 256 257 255 253 251 248 250 249 246 245 240 238 237 239 239 237
213 227 234 243 242 249 252 257 260 267 279 281 277 277 276 276 274 273 271 268 266 265 264 260 258 256 252 251 252 251 250 247 244 244 249 247 244 239 238 236 238 240
222 234 242 247 251 253 257 259 265 273 281 277 274 274 273 273 274 274 270 267 264 262 261 260 258 257 254 251 251 252 251 250 246 244 244 245 246 243 239 237 237 237
230 241 246 253 256 259 261 268 274 279 281 276 273 274 273 269 268 270 271 269 267 263 259 258 257 255 254 252 249 248 250 248 247 244 241 240 243 244 241 237 237 237
235 246 258 259 262 267 272 276 278 279 280 280 276 272 270 271 269 268 268 266 264 262 260 258 256 255 253 252 250 248 248 250 248 245 243 242 241 242 243 241 237 236
242 253 260 265 270 274 277 279 282 282 282 279 276 275 272 271 271 269 266 266 265 263 262 260 258 256 254 252 252 250 248 248 249 248 245 241 239 239 240 239 238 237
253 264 272 273 275 279 283 285 284 284 282 281 279 276 274 273 268 266 264 264 263 263 261 260 259 258 256 254 252 249 248 247 247 246 246 244 240 239 237 240 239 236
258 266 269 272 278 282 284 286 286 284 283 281 280 277 275 273 271 268 266 264 263 261 260 259 258 257 255 254 252 249 247 246 246 247 246 243 241 238 237 237 238 238
263 265 269 272 277 287 291 290 288 287 285 283 280 279 277 275 272 271 268 265 262 260 260 258 258 256 255 251 250 248 248 246 244 245 246 246 242 238 235 235 237 237
268 268 266 278 291 293 295 292 290 288 285 283 281 280 278 276 275 271 268 265 264 263 261 259 257 255 251 248 250 252 248 246 245 243 244 246 246 241 237 234 235 235
267 272 281 286 295 297 293 293 291 292 291 289 288 284 281 278 274 272 267 265 263 262 261 259 257 254 252 245 237 239 252 256 252 247 245 244 245 243 240 235 232 232
270 278 287 295 297 296 296 297 297 296 294 291 289 287 283 281 276 272 270 268 264 262 260 259 258 256 256 253 244 236 233 243 248 251 250 247 243 243 242 238 234 232
271 283 292 297 298 300 300 301 302 301 298 296 291 289 286 282 279 277 274 272 267 265 263 260 260 256 253 251 249 241 233 231 243 245 247 249 248 245 243 239 236 232
277 285 294 300 299 300 303 306 307 304 303 298 295 291 288 284 281 279 276 273 270 268 266 264 262 260 255 251 246 242 235 228 240 242 245 246 246 248 250 244 236 234
277 289 303 301 297 300 304 308 310 310 308 304 298 293 289 285 283 280 276 273 270 268 267 265 263 262 257 253 248 239 234 227 237 241 243 244 243 243 247 254 247 235
282 292 295 296 299 303 305 308 313 313 311 306 298 292 288 285 282 278 274 271 268 267 266 266 264 259 254 250 243 238 231 228 234 238 239 241 242 239 241 243 250 243
286 293 295 296 302 305 307 311 314 314 311 306 298 293 290 287 284 278 275 272 271 269 269 268 268 262 253 246 243 237 229 230 234 236 238 238 238 239 238 240 238 243
281 290 294 299 303 305 309 312 312 309 310 309 302 298 293 289 287 283 277 274 271 271 269 270 268 263 256 246 238 233 226 231 232 234 236 235 236 235 236 236 236 238
286 292 296 300 304 307 311 310 306 308 312 310 304 300 295 293 289 285 282 277 273 271 269 267 266 262 255 248 238 230 223 226 231 233 234 232 231 231 229 232 234 236
282 288 293 302 306 308 311 311 312 312 316 313 309 305 300 295 290 288 286 281 277 273 273 269 270 267 256 244 238 231 220 223 228 230 231 231 227 225 224 224 230 232